[[{"header":{"parameterUnit":"m.s-1","parameterCategory":1,"la1":30.2991,"la2":30.254,"lo1":-89.0895,"lo2":-89.0444,"dx":0.0017,"dy":0.0017,"nx":28,"ny":28,"refTime":"2022-12-16T09:00:00:Z","depth":0,"parameterNumber":2,"parameterNumberName":"U-component_of_WINDS"},"data":[0,0,0,0,0,0,0,0,0,0,0,0,0,0,0,0,0,0,0,0,0,0,0,0,0,0,0,0,0,0,0,0,0,0,0,0,0,0,0,0,0,0,0,0,0,0,0,0,0,0,0,0,0,0,0,0,0,0,-0.445,-0.445,0,-0.4519,-0.4519,-0.452,-0.4477,-0.4475,-0.4473,-0.4471,-0.4545,-0.4549,-0.4553,0,0,0,0,0,0,0,0,0,0,0,0,0,-0.4282,-0.4286,-0.445,-0.4451,-0.4451,-0.4519,-0.4519,-0.452,-0.4478,-0.4475,-0.4473,-0.447,-0.4544,-0.4548,-0.4553,0,0,0,0,0,0,0,0,0,0,0,0,0,-0.4354,-0.4287,-0.445,-0.4438,-0.4438,-0.4518,-0.452,-0.4521,-0.4478,-0.4475,-0.4472,-0.4469,-0.4542,-0.4548,-0.4553,-0.465,0,0,-0.4571,-0.4574,0,0,0,0,0,0,0,0,-0.435,-0.436,-0.4439,-0.4439,-0.4439,-0.4486,-0.4487,-0.4564,-0.4479,-0.4463,-0.4471,-0.4468,-0.4528,-0.4535,-0.4555,-0.4654,-0.4657,-0.4572,-0.4575,-0.4578,-0.4579,0,0,0,0,0,0,0,-0.4345,-0.4357,-0.4477,-0.444,-0.444,-0.443,-0.4437,-0.4502,-0.4512,-0.4464,-0.4461,-0.447,-0.4527,-0.4549,-0.4556,-0.4658,-0.4572,-0.4577,-0.458,-0.4582,-0.4839,-0.4842,0,0,0,0,0,0,-0.434,-0.4353,-0.4475,-0.4479,-0.4386,-0.4435,-0.4443,-0.4474,-0.4511,-0.4514,-0.4472,-0.4467,-0.4541,-0.4549,-0.4558,-0.4675,-0.4578,-0.4583,-0.4586,-0.4836,-0.484,-0.4843,0,0,0,0,0,0,-0.4337,-0.4352,-0.4472,-0.4415,-0.443,-0.4442,-0.4477,-0.4477,-0.4499,-0.4517,-0.4519,-0.4493,-0.4539,-0.455,-0.4627,-0.4677,-0.4586,-0.4591,-0.4832,-0.4837,-0.4842,-0.4908,0,0,0,0,0,0,-0.4332,-0.4351,-0.4388,-0.4416,-0.4433,-0.454,-0.448,-0.4481,-0.4508,-0.4503,-0.4537,-0.4539,-0.4537,-0.4619,-0.4633,-0.4683,-0.4595,-0.4828,-0.4834,-0.484,-0.4901,-0.4914,-0.4926,0,0,0,0,0,-0.4327,-0.4404,-0.439,-0.4405,-0.4479,-0.4543,-0.4552,-0.4548,-0.4512,-0.455,-0.4561,-0.4538,-0.4668,-0.4627,-0.4643,-0.4695,-0.4825,-0.4832,-0.484,-0.4896,-0.4912,-0.4925,0,0,0,0,0,0,-0.4383,-0.4408,-0.4392,-0.4481,-0.451,-0.4535,-0.4583,-0.4565,-0.4605,-0.4598,-0.4591,-0.4599,-0.468,-0.4694,-0.4649,-0.479,-0.4741,-0.4752,-0.4778,-0.4794,-0.4805,-0.4802,-0.46,0,0,0,0,0,-0.4405,-0.4454,-0.4473,-0.455,-0.4565,-0.4571,-0.4599,-0.4592,-0.4622,-0.4635,-0.4652,-0.4683,-0.473,-0.4762,-0.4807,-0.4902,-0.4909,-0.4945,-0.4957,-0.4967,-0.4978,-0.5029,-0.5046,-0.4868,-0.4868,-0.4868,0,0,-0.4453,-0.4472,-0.4504,-0.4562,-0.4583,-0.4635,-0.4582,-0.4639,-0.4678,-0.4644,-0.4718,-0.4731,-0.4765,-0.4851,-0.489,-0.4866,-0.5028,-0.4977,-0.4984,-0.499,-0.5039,-0.5056,-0.507,-0.4873,-0.4872,-0.4872,0,0,-0.4566,-0.4585,-0.4652,-0.4674,-0.4706,-0.4709,-0.4725,-0.4753,-0.476,-0.4834,-0.4809,-0.4854,-0.4937,-0.4962,-0.4985,-0.5105,-0.5086,-0.512,-0.5185,-0.5235,-0.5249,-0.5261,-0.5306,-0.5321,-0.5129,-0.513,-0.513,0,-0.4622,-0.4698,-0.4688,-0.4747,-0.4773,-0.4742,-0.481,-0.4832,-0.4878,-0.4897,-0.4869,-0.497,-0.4991,-0.5083,-0.5112,-0.5131,-0.515,-0.5118,-0.5247,-0.526,-0.5271,-0.5313,-0.533,-0.5134,-0.5133,-0.5133,-0.5132,0,-0.4766,-0.4819,-0.4868,-0.4912,-0.4944,-0.5006,-0.5006,-0.5039,-0.5029,-0.5035,-0.511,-0.5132,-0.5181,-0.5202,-0.5193,-0.5293,-0.5277,-0.5248,-0.5199,-0.5293,-0.5332,-0.5348,-0.514,-0.5138,-0.5137,-0.5136,0,0,-0.4921,-0.4956,-0.4975,-0.4994,-0.5026,-0.5068,-0.5128,-0.5175,-0.5204,-0.5235,-0.5287,-0.5356,-0.5329,-0.5355,-0.5348,-0.5392,-0.5487,-0.5358,-0.5358,-0.5383,-0.5599,-0.5622,-0.5641,-0.5472,-0.5475,-0.5477,-0.5597,0,-0.5038,-0.5144,-0.5135,-0.5236,-0.5285,-0.5255,-0.5307,-0.5333,-0.534,-0.5382,-0.5389,-0.5439,-0.5399,-0.5415,-0.5456,-0.5466,-0.553,-0.5457,-0.5522,-0.5524,-0.5517,-0.5662,-0.5687,-0.5799,-0.5612,-0.5614,-0.5616,0,-0.519,-0.5226,-0.5331,-0.5355,-0.5375,-0.5423,-0.5464,-0.5505,-0.5533,-0.5535,-0.5563,-0.5548,-0.5609,-0.5555,-0.564,-0.5591,-0.5616,-0.5624,-0.5629,-0.5637,-0.5578,-0.5676,-0.5834,-0.5852,-0.564,-0.5638,-0.5637,0,-0.5295,-0.5369,-0.5442,-0.5459,-0.5488,-0.5522,-0.5536,-0.5561,-0.5589,-0.5625,-0.5643,-0.5685,-0.571,-0.5743,-0.574,-0.5701,-0.5826,-0.5772,-0.583,-0.5831,-0.5861,-0.586,-0.6028,-0.5873,-0.5873,-0.5872,-0.5872,0,-0.5429,-0.5495,-0.5489,-0.5534,-0.5607,-0.5596,-0.5668,-0.5678,-0.57,-0.5746,-0.5722,-0.5766,-0.5757,-0.5802,-0.5799,-0.587,-0.5881,-0.5884,-0.5883,-0.5888,-0.5888,-0.5907,-0.5901,-0.5877,-0.5876,-0.5875,-0.5874,0,-0.556,-0.5559,-0.5636,-0.5656,-0.5663,-0.5716,-0.5733,-0.5776,-0.5778,-0.5838,-0.5851,-0.5856,-0.5906,-0.5905,-0.5963,-0.5961,-0.6049,-0.6037,-0.604,-0.6038,-0.6097,-0.6093,-0.6286,-0.6311,-0.6137,-0.6139,-0.614,0,-0.5648,-0.5697,-0.5722,-0.5751,-0.5767,-0.5814,-0.5842,-0.5831,-0.5861,-0.5896,-0.5934,-0.5982,-0.602,-0.6102,-0.6111,-0.6154,-0.6146,-0.621,-0.6152,-0.6155,-0.6149,-0.6147,-0.6153,-0.6223,-0.6225,-0.6226,-0.6227,0,-0.5803,-0.5799,-0.584,-0.5881,-0.5914,-0.5946,-0.5975,-0.6,-0.5992,-0.6027,-0.6078,-0.6107,-0.6164,-0.6213,-0.6254,-0.6268,-0.6248,-0.6245,-0.6261,-0.6268,-0.6268,-0.6271,-0.6073,-0.6241,-0.624,-0.6239,-0.6238,-0.6238,-0.5917,-0.596,-0.5984,-0.603,-0.6049,-0.6077,-0.6117,-0.6124,-0.6166,-0.6212,-0.6202,-0.6259,-0.6284,-0.6337,-0.6355,-0.6399,-0.6377,-0.64,-0.6406,-0.6413,-0.642,-0.6258,-0.6406,-0.6406,-0.6406,-0.6405,-0.6405,0,-0.6073,-0.6086,-0.6128,-0.6169,-0.6205,-0.6179,-0.6209,-0.6241,-0.6291,-0.6316,-0.6353,-0.641,-0.6456,-0.6467,-0.6511,-0.6544,-0.6536,-0.6557,-0.6556,-0.6559,-0.6437,-0.642,-0.6563,-0.6563,-0.6563,-0.6563,-0.6563,-0.6563,-0.6159,-0.623,-0.6229,-0.6309,-0.6322,-0.6377,-0.6396,-0.6421,-0.644,-0.6506,-0.6543,-0.6549,-0.6568,-0.6613,-0.6653,-0.6655,-0.6674,-0.6699,-0.6697,-0.6584,-0.6568,-0.6553,-0.6537,-0.6702,-0.6702,-0.6816,-0.6817,-0.6818]},{"header":{"parameterUnit":"m.s-1","parameterCategory":1,"la1":30.2991,"la2":30.254,"lo1":-89.0895,"lo2":-89.0444,"dx":0.0017,"dy":0.0017,"nx":28,"ny":28,"refTime":"2022-12-16T09:00:00:Z","depth":0,"parameterNumber":3,"parameterNumberName":"V-component_of_WINDS"},"data":[0,0,0,0,0,0,0,0,0,0,0,0,0,0,0,0,0,0,0,0,0,0,0,0,0,0,0,0,0,0,0,0,0,0,0,0,0,0,0,0,0,0,0,0,0,0,0,0,0,0,0,0,0,0,0,0,0,0,-6.2094,-6.2096,0,-6.2308,-6.231,-6.2312,-6.2215,-6.221,-6.2204,-6.2199,-6.2415,-6.2425,-6.2436,0,0,0,0,0,0,0,0,0,0,0,0,0,-6.1597,-6.1606,-6.2093,-6.2096,-6.2099,-6.2307,-6.231,-6.2313,-6.2216,-6.221,-6.2203,-6.2197,-6.2411,-6.2424,-6.2437,0,0,0,0,0,0,0,0,0,0,0,0,0,-6.1812,-6.1609,-6.2093,-6.2076,-6.2076,-6.2307,-6.231,-6.2314,-6.2217,-6.2209,-6.2201,-6.2194,-6.2407,-6.2423,-6.2439,-6.2697,0,0,-6.2488,-6.2495,0,0,0,0,0,0,0,0,-6.18,-6.183,-6.2076,-6.2077,-6.2078,-6.2226,-6.2214,-6.2442,-6.2219,-6.2164,-6.2199,-6.219,-6.2358,-6.2378,-6.2436,-6.2707,-6.2717,-6.2489,-6.2499,-6.2506,-6.251,0,0,0,0,0,0,0,-6.1785,-6.182,-6.2178,-6.2079,-6.2081,-6.2056,-6.2077,-6.2257,-6.2303,-6.2168,-6.2161,-6.2188,-6.2358,-6.242,-6.244,-6.272,-6.2489,-6.2503,-6.2513,-6.2519,-6.3213,-6.3221,0,0,0,0,0,0,-6.1771,-6.1808,-6.2171,-6.2184,-6.1917,-6.2071,-6.2095,-6.2187,-6.2301,-6.2311,-6.2195,-6.2183,-6.2397,-6.2421,-6.2447,-6.2757,-6.2506,-6.2521,-6.253,-6.3204,-6.3215,-6.3224,0,0,0,0,0,0,-6.176,-6.1804,-6.2163,-6.1995,-6.2039,-6.2088,-6.2192,-6.2195,-6.2258,-6.2321,-6.2329,-6.2251,-6.2391,-6.2424,-6.2636,-6.2763,-6.2528,-6.2542,-6.3194,-6.3208,-6.322,-6.338,0,0,0,0,0,0,-6.1747,-6.1801,-6.1901,-6.1998,-6.2048,-6.235,-6.22,-6.2205,-6.2286,-6.2273,-6.2376,-6.2385,-6.2388,-6.2612,-6.2652,-6.2781,-6.2555,-6.3183,-6.32,-6.3216,-6.3364,-6.3397,-6.3426,0,0,0,0,0,-6.1729,-6.1937,-6.1907,-6.1951,-6.2174,-6.2358,-6.2386,-6.2386,-6.2297,-6.2397,-6.2438,-6.2382,-6.2743,-6.2635,-6.2678,-6.2815,-6.3175,-6.3195,-6.3214,-6.335,-6.3391,-6.3425,0,0,0,0,0,0,-6.1854,-6.195,-6.1917,-6.2163,-6.2253,-6.2341,-6.2468,-6.2429,-6.2546,-6.2528,-6.2521,-6.2546,-6.2764,-6.281,-6.2688,-6.307,-6.2945,-6.2974,-6.3033,-6.3072,-6.3103,-6.3088,-6.2568,0,0,0,0,0,-6.191,-6.2052,-6.2127,-6.2337,-6.2384,-6.2418,-6.2498,-6.249,-6.2582,-6.262,-6.2675,-6.2766,-6.29,-6.2988,-6.3114,-6.3369,-6.3389,-6.3484,-6.3515,-6.354,-6.3566,-6.3703,-6.3745,-6.329,-6.3289,-6.3289,0,0,-6.2027,-6.2097,-6.2187,-6.2364,-6.2433,-6.2579,-6.2451,-6.2611,-6.2719,-6.2644,-6.2847,-6.2891,-6.2991,-6.3225,-6.3331,-6.327,-6.3696,-6.3565,-6.3585,-6.3597,-6.3727,-6.3771,-6.3809,-6.3303,-6.3301,-6.3298,0,0,-6.2316,-6.2384,-6.2565,-6.2637,-6.2743,-6.2764,-6.2807,-6.2901,-6.2928,-6.3132,-6.3079,-6.3205,-6.3436,-6.351,-6.3577,-6.3892,-6.3844,-6.3933,-6.4096,-6.4229,-6.4265,-6.4297,-6.4409,-6.445,-6.3958,-6.3959,-6.3959,0,-6.2449,-6.2668,-6.2663,-6.2828,-6.2907,-6.2846,-6.3029,-6.3098,-6.3239,-6.3294,-6.3224,-6.3511,-6.3575,-6.3825,-6.3901,-6.3958,-6.4007,-6.3922,-6.4261,-6.4292,-6.4322,-6.4429,-6.4471,-6.3969,-6.3967,-6.3966,-6.3965,0,-6.2825,-6.2978,-6.3112,-6.3251,-6.3344,-6.3518,-6.3538,-6.3632,-6.3615,-6.3643,-6.3851,-6.3924,-6.4064,-6.4122,-6.4107,-6.437,-6.4329,-6.426,-6.4134,-6.4376,-6.4476,-6.4517,-6.3983,-6.3979,-6.3976,-6.3974,0,0,-6.3201,-6.3335,-6.3384,-6.3446,-6.3557,-6.3675,-6.3843,-6.3981,-6.4062,-6.4161,-6.4302,-6.4498,-6.4434,-6.4511,-6.4503,-6.462,-6.4864,-6.4536,-6.4538,-6.4595,-6.5157,-6.521,-6.5257,-6.4832,-6.484,-6.4846,-6.5149,0,-6.3499,-6.3797,-6.3797,-6.4072,-6.4212,-6.4155,-6.4301,-6.4385,-6.4415,-6.4537,-6.4568,-6.4708,-6.4613,-6.4659,-6.4772,-6.4811,-6.4977,-6.4788,-6.4963,-6.4969,-6.4941,-6.531,-6.5366,-6.5649,-6.5188,-6.5195,-6.52,0,-6.3887,-6.3999,-6.4288,-6.4378,-6.4437,-6.4569,-6.4695,-6.4812,-6.4904,-6.4918,-6.5003,-6.4977,-6.5147,-6.5014,-6.5248,-6.512,-6.519,-6.522,-6.523,-6.5248,-6.51,-6.5338,-6.5739,-6.5782,-6.5261,-6.5256,-6.5252,0,-6.4133,-6.4356,-6.4557,-6.4612,-6.4722,-6.4816,-6.4866,-6.495,-6.5033,-6.5141,-6.5194,-6.5321,-6.5391,-6.5488,-6.5496,-6.5399,-6.5731,-6.56,-6.5746,-6.5747,-6.582,-6.5816,-6.6239,-6.5864,-6.5864,-6.5863,-6.5862,0,-6.4466,-6.4645,-6.4669,-6.4794,-6.4992,-6.4989,-6.5184,-6.5225,-6.5301,-6.543,-6.5387,-6.5509,-6.5512,-6.5636,-6.5643,-6.5835,-6.5866,-6.5881,-6.5881,-6.5886,-6.5884,-6.5933,-6.5914,-6.5874,-6.5872,-6.587,-6.5868,0,-6.4775,-6.4799,-6.5015,-6.5101,-6.5126,-6.5269,-6.5341,-6.5458,-6.5483,-6.5648,-6.5686,-6.5725,-6.5869,-6.5886,-6.6053,-6.6057,-6.6289,-6.6268,-6.6259,-6.6256,-6.6402,-6.6388,-6.6873,-6.6936,-6.6519,-6.6523,-6.6526,0,-6.4988,-6.5124,-6.5224,-6.5309,-6.5364,-6.55,-6.5584,-6.5585,-6.5673,-6.5788,-6.5891,-6.6031,-6.6143,-6.6376,-6.6418,-6.6545,-6.6527,-6.6687,-6.6546,-6.6546,-6.653,-6.6522,-6.6535,-6.6715,-6.672,-6.6724,-6.6727,0,-6.5361,-6.5366,-6.5489,-6.5617,-6.5718,-6.5818,-6.5912,-6.5983,-6.5995,-6.6096,-6.6244,-6.6331,-6.6502,-6.6641,-6.6766,-6.6814,-6.6774,-6.6771,-6.6811,-6.6819,-6.6809,-6.6817,-6.6335,-6.676,-6.6757,-6.6754,-6.6753,-6.6751,-6.5629,-6.5748,-6.5837,-6.5975,-6.6045,-6.6134,-6.6248,-6.6287,-6.641,-6.6551,-6.6542,-6.6705,-6.6791,-6.6955,-6.7013,-6.7138,-6.7085,-6.7144,-6.7159,-6.7174,-6.7189,-6.6787,-6.7161,-6.716,-6.7159,-6.7158,-6.7158,0,-6.6002,-6.6055,-6.6183,-6.6315,-6.6424,-6.6375,-6.6476,-6.6569,-6.6713,-6.6798,-6.6909,-6.7077,-6.7211,-6.7263,-6.7394,-6.7484,-6.7468,-6.7518,-6.7512,-6.7524,-6.7229,-6.7181,-6.7529,-6.7529,-6.7529,-6.7529,-6.7529,-6.7529,-6.6208,-6.6406,-6.6421,-6.6652,-6.6704,-6.6864,-6.6925,-6.7006,-6.7073,-6.7264,-6.7375,-6.7408,-6.7479,-6.7614,-6.7734,-6.7746,-6.7796,-6.7855,-6.7858,-6.7582,-6.7545,-6.7509,-6.7464,-6.7866,-6.7866,-6.8143,-6.8145,-6.8147]}]]